User: anonymous   Login
Location: ????????
(42.0488°N, 44.0407°E)
Time: 03:08:43
(UTC+00:00)
Language:

Cosmos 2278 Rocket - Orbit

View from above orbital plane
View from above orbital plane
View from above satellite
View from above satellite

Ground track
Ground track

The orbit data is extracted from the following two-line orbital elements,

1 23088U 94023B   20221.86713927 +.00000197 +00000-0 +12720-3 0  9991
2 23088 070.9988 031.1082 0003181 191.2556 168.8496 14.14688071357727
Epoch (UTC): 08 August 2020 20:48:40
Eccentricity: 0.0003181
inclination: 70.9988°
perigee height: 841 km
apogee height: 845 km
right ascension of ascending node: 31.1082°
argument of perigee: 191.2556°
revolutions per day: 14.14688071
mean anomaly at epoch: 168.8496°
orbit number at epoch: 35772

The dashed part of the orbit path shows where the satellite is in the earth's shadow,  

DLR